Location: Buch
(49.7331°N, 12.1098°E)
Time: 23:53:45
(UTC+00:00)

Meteor 1-26 Rocket - Pass Details

Date: 12 May 2021
Orbit: 807 x 928 km, 81.3° (Epoch: 23 June)

Event Time Altitude Azimuth Distance (km) Brightness Sun altitude
Rises 19:33:20 0° 181° (S) 3,441 7.0 -7.1°
Reaches altitude 10° 19:35:48 10° 179° (S) 2,490 6.3 -7.4°
Maximum altitude 19:41:23 68° 98° (E) 906 4.2 -8.1°
Drops below altitude 10° 19:46:50 10° 17° (NNE) 2,435 7.0 -8.7°
Sets 19:49:13 0° 15° (NNE) 3,360 7.7 -9.0°
